THOR ABLESTAR DEB, 715

Orbit data source: Space-Track

THOR ABLESTAR DEB, 715 is space debris in LEO originally from a launch on Thu, 05 Dec 1963 UTC launched from the Air Force Western Test Range (AFWTR). Debris objects in space refer to the collection of defunct objects orbiting the Earth. Examples of debris include non-operational satellites, rocket bodies, and fragments generated from explosions, collisions, or faulty payload assembly.

Loading next visibility...
Identifier
715, 1963-049E
Orbit
LEO
Country
Flag of USUS
Related business
Manufacturer
Unknown
Mission
Spacecraft
Bus & Motor
Unknown
Mass
Unknown
Launch date (UTC)
1963-12-05 (62 years ago)
Launch vehicle
Unknown
Launch site
Air Force Western Test Range (AFWTR)
Object type
Payload
Rocket body
Debris
Shape & HBR
Unknown
Radar Cross Section
Small (<0.1 m²)

Expand to show TLE details & history
Last TLE update: 1 day ago

TLE from 1 day ago
0 THOR ABLESTAR DEB
1 00715U 63049E   25242.03239208  .00000826  00000-0  85235-3 0  9999
2 00715  89.9051  80.3593 0028960 323.3375 189.6608 13.75063018 63366
Epoch: 2025-08-30T00:46Z
TLE epoch observation values (Epoch: 2025-08-30T00:46:38.675Z)
Latitude
27.09276°
Longitude
-89.82265°
Altitude
1,005.861 km
Speed
7.341 km/s
True Right ascension
17h 21m 14s
True Declination
26° 57' 30"
Sunlit
Object was in daylight at epoch
Visualization orbit readout
Latitude
Unknown
Longitude
Unknown
Altitude
Unknown
Speed
Unknown
Apparent Right ascension
Unknown
Apparent Declination
Unknown
Sunlit
N/A
Visualization observer readout
Local Sidereal Time
18:01:32
Azimuth
Unknown
Elevation
Unknown
Doppler factor
Unknown
Orbital elements
Apogee altitude
999.768 km
Perigee altitude
957.159 km
Semi-major axis
7,356.6 km
Eccentricity
0.0029
Inclination
89.9051°
RAAN
80.3593°
Arg. of periapsis
323.3375°
True anomaly
189.60531°
Mean anomaly
189.6608°
Eccentric anomaly
189.63303°
Mean motion
3.43975 °/min
Orbital period
104.66 mins
BSTAR
0.00085235
Loading maneuver chart data...
Computing Atmospheric mass density...
Loading historical data...
Loading historical data...
Loading historical data...
Loading historical data...
Loading historical data...
Loading historical data...
Loading historical data...

Documentation

Showing up to 5 results
|